Location: StarHub Observatory
(35.2598°N, 77.5855°W)
Time: 05:54:27
(UTC-05:00)

Envisat - Visible Passes

Search period start: 01 December 2021 00:00
Search period end: 11 December 2021 00:00
Orbit: 764 x 766 km, 98.2° (Epoch: 01 December)

Date Brightness Start Highest point End Pass type
(mag) Time Alt. Az. Time Alt. Az. Time Alt. Az.
01 Dec 5.3 04:10:31 10° NE 04:14:20 21° E 04:18:08 10° SE visible
01 Dec 3.4 05:48:45 10° N 05:53:24 37° WNW 05:58:02 10° SW visible
02 Dec 2.9 05:11:35 10° NNE 05:16:41 88° W 05:21:45 10° SSW visible
03 Dec 4.3 04:35:03 10° NNE 04:39:47 38° E 04:44:29 10° SSE visible
03 Dec 4.1 06:14:43 10° NNW 06:18:29 21° WNW 06:22:15 10° WSW visible
03 Dec 5.8 17:26:19 10° SW 17:30:09 21° W 17:33:59 10° NW visible
04 Dec 5.7 03:59:33 10° NE 04:02:41 16° E 04:05:47 10° SE visible
04 Dec 3.1 05:37:02 10° N 05:41:54 48° WNW 05:46:46 10° SW visible
05 Dec 3.2 05:00:03 10° NNE 05:05:08 72° ESE 05:10:11 10° S visible
05 Dec 6.3 17:54:10 10° WSW 17:55:41 11° W 17:57:12 10° WNW visible
06 Dec 4.8 04:23:45 10° NE 04:28:10 30° E 04:32:34 10° SSE visible
06 Dec 3.8 06:02:48 10° NNW 06:07:02 27° WNW 06:11:15 10° SW visible
07 Dec 6.0 03:49:02 10° ENE 03:51:01 12° E 03:53:00 10° ESE visible
07 Dec 2.9 05:25:22 10° N 05:30:24 63° WNW 05:35:24 10° SSW visible
08 Dec 3.6 04:48:35 10° NNE 04:53:34 54° E 04:58:31 10° S visible
08 Dec 4.4 06:29:09 10° NNW 06:32:04 16° WNW 06:35:00 10° W visible
08 Dec 6.0 17:41:08 10° SW 17:44:00 15° W 17:46:54 10° WNW visible
09 Dec 5.2 04:12:34 10° NE 04:16:33 23° E 04:20:30 10° SSE visible
09 Dec 3.5 05:51:00 10° N 05:55:34 35° WNW 06:00:07 10° SW visible
10 Dec 2.8 05:13:46 10° N 05:18:52 82° WNW 05:23:56 10° SSW visible
